Location: Middelsbur
(53.6609°N, 7.5020°E)
Time: 12:52:45
(UTC+00:00)

Cosmos 1743 Rocket - Pass Details

Date: 06 July 2020
Orbit: 605 x 631 km, 82.6° (Epoch: 06 August)

Event Time Altitude Azimuth Distance (km) Brightness Sun altitude
Exits shadow 23:29:39 22° 168° (SSE) 1,339 4.7 -13.8°
Maximum altitude 23:32:17 58° 96° (E) 716 3.8 -13.8°
Drops below altitude 10° 23:36:35 10° 18° (NNE) 1,979 7.4 -13.8°
Sets 23:38:50 0° 14° (NNE) 2,892 8.7 -13.8°
